Tracking 29747 objects as of 9-Oct-2024
HD Live streaming from Space Station
objects crossing your sky now

STARLINK-1088

Track STARLINK-1088 now!
10-day predictions
STARLINK-1088 is classified as:


NORAD ID: 44966
Int'l Code: 2020-001BE
Perigee: 449.3 km
Apogee: 452.3 km
Inclination: 53.1 °
Period: 93.5 minutes
Semi major axis: 6821 km
RCS: Unknown
Launch date: January 7, 2020
Source: United States (US)
Launch site: AIR FORCE EASTERN TEST RANGE (AFETR)
Your satellite tracking list
Your tracking list is empty




NASA's NSSDC Master Catalog

Two Line Element Set (TLE):
1 44966U 20001BE  24283.60891345  .00042960  00000-0  10355-2 0  9994
2 44966  53.0642  32.0820 0002187 348.7354  11.3601 15.40837537263644
Source of the keplerian elements: AFSPC